Details From CYGL - LA GRANDE RIVIERE
To CYNM - MATAGAMI
Flight Number -
Tags decoded
Created
Modified
Stats Distance 232 nm / 430 km
Max Altitude 0 ft / 0 m
Waypoints 2
Social Downloads 0
Likes 0
Share VATSIM

Download

Looking for another format? Having issues loading an existing format? Contact us
Advertisement - Login to hide

Notes

Requested: CYGL CYNM

Route

CYGL CYNM

ID Type Via Altitude Latitude Longitude Leg Dist Tot Dist Heading (true) Name
O CYGL APT - 0 ft / 0 m 53.62537˚ -77.70412˚ - 0 nm - LA GRANDE RIVIERE
O CYNM APT - 0 ft / 0 m 49.76169˚ -77.80250˚ 232 nm 232 nm 181° / 181° MATAGAMI

Altitude Profile

Advertisement - Login to hide

Weather


0- 5 10 15 20 25 30 35+ Temperature / ° C

Clouds and Precipitation
Forecast for 2018-05-21 12:00 UTC. Updated 17 minutes ago

Ground ~20,000 ft ~40,000 ft Winds

CYGL

Details ICAO CYGL (YGL)
Name LA GRANDE RIVIERE
Region Canada
Timezone America/Montreal (UTC-4.0)
Stats Elevation 639 ft / 195 m (AMSL)
Location 53.625369° -77.704115°
Runways 1
Magnetic Variation 15.268° W

METAR

CYGL 211100Z 30013G19KT 15SM -SN OVC012 M05/M07 A3001 RMK SC8 SLP177

Decode

TAF

TAF TAF AMD CYGL 210806Z 2108/2206 30012KT P6SM OVC020 TEMPO 2108/2116 4SM -FZDZ -SN BKN006 OVC012 PROB30 2108/2113 OVC007 FM211600 29012KT P6SM FEW015 BKN025 BECMG 2122/2124 26008KT FM220400 VRB03KT 6SM -SHSN BKN025 BKN150 RMK NXT FCST BY 211200Z

Decode

Departure Runways

ID Width Length Bearing (true) Bearing (mag) Surface Threshold Offset Overrun Length
13 150 ft / 46 m 6,469 ft / 1,972 m 113.03° 128.30° Asphalt 0 ft / 0 m 0 ft / 0 m
31 150 ft / 46 m 6,469 ft / 1,972 m 293.05° 308.32° Asphalt 0 ft / 0 m 0 ft / 0 m

CYNM

Details ICAO CYNM (YNM)
Name MATAGAMI
Region Canada
Timezone America/Montreal (UTC-4.0)
Stats Elevation 918 ft / 280 m (AMSL)
Location 49.761691° -77.802504°
Runways 1
Magnetic Variation 13.454° W

METAR

CYNM 211121Z AUTO 23004KT 9SM FEW085 04/M01 A3007 RMK ICG PAST HR SLP193

Decode

TAF

Not found

Destination Runways

ID Width Length Bearing (true) Bearing (mag) Surface Threshold Offset Overrun Length
15 100 ft / 30 m 4,993 ft / 1,522 m 134.24° 147.69° Asphalt 0 ft / 0 m 0 ft / 0 m
33 100 ft / 30 m 4,993 ft / 1,522 m 314.25° 327.70° Asphalt 0 ft / 0 m 0 ft / 0 m

Popular Alternatives